Hourly Data Report for October 02, 2017

All times are specified in Local Standard Time (LST). Add 1 hour to adjust for Daylight Saving Time where and when it is observed.

SIOUX LOOKOUT A
ONTARIO

50°06'51.000" N
91°54'29.000" W
383.10 m
6037776
71842
YXL

Download Data

Hourly Data (October 2017)
Hourly Data Report for October 2, 2017
Temp Definition
°C
Dew Point Temp Definition
°C
Rel Hum Definition
%
Wind Dir Definition
10's deg

Wind Spd Definition
km/h
Visibility Definition
km
Stn Press Definition
kPa
Hmdx Definition


Wind Chill Definition


Weather Definition


TIME
00:00 Legend Double Dagger 14.3 9.1 71 16 17 24.1 96.62     Cloudy
01:00 Legend Double Dagger 13.7 9.1 74 16 17 24.1 96.50     LegendNANA
02:00 Legend Double Dagger 14.2 9.3 72 16 13 24.1 96.54     LegendNANA
03:00 Legend Double Dagger 14.1 9.4 73 16 15 24.1 96.53     Mostly Cloudy
04:00 Legend Double Dagger 13.6 9.2 75 17 14 24.1 96.53     LegendNANA
05:00 Legend Double Dagger 13.6 8.9 73 16 16 24.1 96.52     LegendNANA
06:00 Legend Double Dagger 13.4 8.5 72 16 17 24.1 96.50     Mostly Cloudy
07:00 Legend Double Dagger 13.6 8.6 71 16 14 24.1 96.53     LegendNANA
08:00 Legend Double Dagger 11.4 10.1 92 17 18 9.7 96.55     Rain Showers,Fog
09:00 Legend Double Dagger 11.2 10.4 95 16 19 19.3 96.55     Rain Showers
10:00 Legend Double Dagger 11.3 10.8 97 16 12 2.8 96.51     Rain Showers,Fog
11:00 Legend Double Dagger 11.8 11.3 96 17 13 16.1 96.51     Drizzle,Fog
12:00 Legend Double Dagger 12.3 11.8 97 17 15 4.8 96.50     Drizzle,Fog
13:00 Legend Double Dagger 12.8 12.2 96 19 14 16.1 96.52     Drizzle
14:00 Legend Double Dagger 13.0 12.4 97 19 12 16.1 96.56     Drizzle
15:00 Legend Double Dagger 13.3 12.6 95 19 13 24.1 96.60     Cloudy
16:00 Legend Double Dagger 13.3 12.7 96 18 13 24.1 96.61     Drizzle
17:00 Legend Double Dagger 13.3 12.6 95 19 11 24.1 96.68     LegendNANA
18:00 Legend Double Dagger 13.2 12.6 96 18 9 24.1 96.75     Cloudy
19:00 Legend Double Dagger 13.1 12.6 96 20 7 8.1 96.82     Drizzle
20:00 Legend Double Dagger 12.4 11.9 97 18 7 24.1 96.84     LegendNANA
21:00 Legend Double Dagger 13.0 12.4 96 19 8 16.1 96.86     Mostly Cloudy
22:00 Legend Double Dagger 12.8 12.2 96 20 5 16.1 96.88     LegendNANA
23:00 Legend Double Dagger 10.4 10.1 98 19 3 24.1 96.90     LegendNANA

Notes on Data Quality.

Legend

  • E = Estimated
  • M = Missing
  • NA = Not Available
  • ‡ = Partner data that is not subject to review by the National Climate Archives
Date modified: